PulseSat

PulseSat

GORIZONT 20 [-]

Last updated on Dec. 17, 2018, 12:08 a.m. UTC

1 20659U 90054A   18350.54848726 -.00000042  00000-0  00000+0 0  9997
2 20659  14.9828 358.7891 0002729 198.1369 155.4334  1.00224410104222
UTC
Height (km)
Latitude
Longitude
Inclination
Orbital Period

Next 30 passes for location: Hong Kong

Rise time Rise Azimuth (degrees) Set time Set Azimuth (degrees) Duration Max altitude (degrees)

No matching passes for this satellites

PulseSat

PulseSat is the new satellites software and hardware trackering solution by Pulsely.
Satellite Two Line Element Set source: US Air Force Space Command

Download PulseSat for iOS
© 2017 Pulsely Limited